Regional Weather Roundup
Issued by NWS

Home | Current Version | Previous Version | Graphics & Text | Print | Product List | Glossary On
Versions: 1 2 3 4 5 6 7 8 9 10 11 12 13 14 15 16 17 18 19 20 21 22 23 24 25 26 27 28 29 30 31 32 33 34 35 36 37 38 39 40 41 42 43 44 45 46 47 48 49 50
909
ASUS43 KIND 101909
RWRIN

WEATHER ROUNDUP FOR INDIANA
NATIONAL WEATHER SERVICE INDIANAPOLIS IN
200 PM EST WED FEB 10 2016

NOTE: "FAIR" INDICATES FEW OR NO CLOUDS BELOW 12,000 FEET WITH NO
SIGNIFICANT WEATHER AND/OR OBSTRUCTIONS TO VISIBILITY.

* - STATION DOES NOT REPORT WEATHER SUCH AS PRECIPITATION OR FOG.

+ - STATION NOT QUALITY CONTROLLED BY THE NATIONAL WEATHER SERVICE.
    USE DATA WITH CAUTION...ESPECIALLY DEWPOINT AND RELATIVE
    HUMIDITY OBSERVATIONS.

INZ001>003-010>013-019-020-102000-
NORTHWEST INDIANA

CITY           SKY/WX    TMP DP  RH WIND       PRES   REMARKS
GARY /AIRPORT/ PTSUNNY   19   3  49 W12       30.02F WCI   7
KNOX *+        SUNNY     18   5  57 W14G20    29.99S WCI   4
LA PORTE +     CLOUDY    18   9  68 W12G22    29.98S WCI   5
MICHIGAN CITY+ FLURRIES  18  10  73 W9G17     29.99F WCI   6
MONTICELLO +   CLOUDY    16   1  51 W10       30.02F WCI   4
RENSSELAER +   CLOUDY    18   3  53 W8        30.02F WCI   7
VALPARAISO     CLOUDY    17   4  56 W8        29.99F WCI   7

$$

LMZ046-743>745-102000-
SOUTHERN LAKE MICHIGAN

STATION/POSITION TIME  TEMP    WIND        PRES    WAVE
                       AIR SEA DIR/SP/G            HT
                 (UTC) (F)     (DEG/KT/KT) (MB)    (FT)
BURNS HARBOR     1800   15     290/ 12/ 15 1017.3S
MICHIGAN CITY    1800   16     270/ 20/ 22   N/A

$$

INZ004-005-014>016-021>024-102000-
NORTH CENTRAL INDIANA

CITY           SKY/WX    TMP DP  RH WIND       PRES   REMARKS
ELKHART        FLURRIES  19   9  63 NW14      29.93F WCI   6
GOSHEN         SNOW      18  14  84 W16       29.92S VSB 1/4 WCI   3
LOGANSPORT +   MOSUNNY   18   1  49 W13G22    30.01F WCI   4
PERU/GRISSOM   SUNNY     17   6  63 W16       29.97F WCI   1
ROCHESTER +    MOSUNNY   23   3  42 W16       29.97F WCI  10
SOUTH BEND     SNOW      16  13  88 W15       29.95S VSB 1/2 WCI   1
WARSAW +       CLOUDY    19  12  73 W15G24    29.93F WCI   5

$$

INZ006>009-017-018-025>027-102000-
NORTHEAST INDIANA

CITY           SKY/WX    TMP DP  RH WIND       PRES   REMARKS
ANGOLA *+      CLOUDY    19  10  68 W14       29.86S WCI   6
AUBURN +       PTSUNNY   23  14  68 W15       29.90F WCI  10
FORT WAYNE     FLURRIES  24  11  57 W18       29.93F WCI  10
HUNTINGTON +   PTSUNNY   18   4  54 W10       29.95S WCI   6

$$

INZ028-029-035-036-043>045-051>053-102000-
WEST CENTRAL INDIANA

CITY           SKY/WX    TMP DP  RH WIND       PRES   REMARKS
GREENCASTLE +  PTSUNNY   18   1  49 SW8       30.05F WCI   7
LAFAYETTE      CLOUDY    15   5  64 W12       30.04F WCI   2
TERRE HAUTE    MOSUNNY   17   4  56 NW12G17   30.09F WCI   4

$$

INZ030>032-037>040-046>048-054>057-064-065-102000-
CENTRAL INDIANA

CITY           SKY/WX    TMP DP  RH WIND       PRES   REMARKS
COLUMBUS       PTSUNNY   18   9  68 W12       30.07S WCI   5
FISHERS *+     CLOUDY    14   7  73 W12G17    30.02F WCI   0
FRANKFORT +    CLOUDY    17   1  49 W15G22    30.03F WCI   2
GREENWOOD *+   PTSUNNY   18   7  62 W10G17    30.04F WCI   6
INDIANAPOLIS   PTSUNNY   16   5  62 W13       30.03F WCI   2
-EAGLE CREEK   CLOUDY    14   5  67 W13       30.03F WCI   0
KOKOMO *+      MOSUNNY   16   5  62 W20       29.99F WCI  -1
MARION +       CLOUDY    16   2  53 W17       29.99S WCI   0
MT COMFORT *+  CLOUDY    18   9  68 W13       30.02F WCI   4
SHELBYVILLE    CLOUDY    16   5  62 W14       30.03F WCI   2
ZIONSVILLE +   CLOUDY    13   4  67 W10       30.02F WCI   0

$$

INZ033-034-041-042-049-050-058-059-102000-
EAST CENTRAL INDIANA

CITY           SKY/WX    TMP DP  RH WIND       PRES   REMARKS
MUNCIE         CLOUDY    17   6  62 W15G24    29.98F WCI   2

$$

INZ060-061-067>069-081>083-085>088-102000-
SOUTHWEST INDIANA

CITY           SKY/WX    TMP DP  RH WIND       PRES   REMARKS
EVANSVILLE     CLOUDY    24   8  50 W10       30.16S WCI  14
HUNTINGBURG *+ MOSUNNY   21   9  58 W12       30.13F WCI   9
WASHINGTON +   MOSUNNY   20   6  55 W8        30.12F WCI  10

$$

INZ062-063-066-070>080-084-089>092-102000-
SOUTH CENTRAL AND SOUTHEAST INDIANA

CITY           SKY/WX    TMP DP  RH WIND       PRES   REMARKS
BEDFORD +      PTSUNNY   19   9  63 SW13G18   30.08F WCI   7
BLOOMINGTON    MOSUNNY   17   4  56 W13       30.06F WCI   4
MADISON *+     PTSUNNY   18   5  57 W7        30.08S WCI   8
NORTH VERNON + PTSUNNY   18   5  57 W13       30.06F WCI   4
SEYMOUR +      PTSUNNY   21   7  53 W9        30.07F WCI  11

$$





USA.gov is the U.S. government's official web portal to all federal, state and local government web resources and services.